TimeCST,TemperatureF,Dew PointF,Humidity,Sea Level PressureIn,VisibilityMPH,Wind Direction,Wind SpeedMPH,Gust SpeedMPH,PrecipitationIn,Events,Conditions,WindDirDegrees,DateUTC
12:15 AM,39.6,34.0,80,29.57,10.0,South,10.4,-,N/A,,Clear,180,2014-01-13 06:15:00
12:35 AM,41.7,34.2,75,29.56,10.0,South,12.7,-,N/A,,Clear,180,2014-01-13 06:35:00
12:55 AM,41.5,34.0,75,29.56,10.0,South,10.4,17.3,N/A,,Clear,180,2014-01-13 06:55:00
1:15 AM,39.2,33.4,80,29.56,10.0,South,6.9,-,N/A,,Clear,170,2014-01-13 07:15:00
1:35 AM,38.8,33.3,80,29.57,10.0,South,5.8,-,N/A,,Clear,180,2014-01-13 07:35:00
1:55 AM,37.9,33.1,83,29.57,10.0,SW,5.8,-,N/A,,Clear,230,2014-01-13 07:55:00
2:15 AM,35.8,32.5,88,29.58,10.0,West,5.8,-,N/A,,Clear,260,2014-01-13 08:15:00
2:35 AM,36.7,32.5,85,29.58,10.0,SSW,3.5,-,N/A,,Clear,210,2014-01-13 08:35:00
2:55 AM,36.7,32.7,86,29.58,10.0,South,3.5,-,N/A,,Clear,190,2014-01-13 08:55:00
3:15 AM,36.1,32.5,87,29.58,10.0,SSW,3.5,-,N/A,,Clear,200,2014-01-13 09:15:00
3:35 AM,35.1,32.2,89,29.57,10.0,Calm,Calm,-,N/A,,Clear,0,2014-01-13 09:35:00
3:55 AM,33.6,32.0,94,29.57,10.0,Calm,Calm,-,N/A,,Clear,0,2014-01-13 09:55:00
4:15 AM,33.1,31.6,94,29.56,10.0,Calm,Calm,-,N/A,,Clear,0,2014-01-13 10:15:00
4:35 AM,32.2,31.6,98,29.57,10.0,Calm,Calm,-,N/A,,Clear,0,2014-01-13 10:35:00
4:55 AM,32.0,31.1,96,29.58,10.0,West,6.9,-,N/A,,Clear,260,2014-01-13 10:55:00
5:15 AM,32.9,31.8,96,29.57,10.0,West,6.9,-,N/A,,Clear,270,2014-01-13 11:15:00
5:35 AM,32.2,31.6,98,29.58,10.0,West,5.8,-,N/A,,Clear,260,2014-01-13 11:35:00
5:55 AM,32.4,31.6,97,29.57,10.0,WNW,5.8,-,N/A,,Clear,290,2014-01-13 11:55:00
6:15 AM,32.4,32.0,99,29.58,10.0,WNW,9.2,-,N/A,,Clear,290,2014-01-13 12:15:00
6:35 AM,32.2,31.8,99,29.58,10.0,WNW,6.9,-,N/A,,Clear,290,2014-01-13 12:35:00
6:55 AM,32.0,31.8,99,29.59,10.0,West,4.6,-,N/A,,Scattered Clouds,280,2014-01-13 12:55:00
7:15 AM,32.0,32.0,100,29.60,10.0,WNW,4.6,-,N/A,,Mostly Cloudy,290,2014-01-13 13:15:00
7:35 AM,33.3,32.2,96,29.61,10.0,WNW,5.8,-,N/A,,Overcast,290,2014-01-13 13:35:00
7:55 AM,33.3,32.4,96,29.63,10.0,West,6.9,-,N/A,,Overcast,280,2014-01-13 13:55:00
8:15 AM,33.8,32.4,94,29.63,10.0,West,4.6,-,N/A,,Mostly Cloudy,280,2014-01-13 14:15:00
8:35 AM,33.3,32.0,95,29.64,10.0,WNW,5.8,-,N/A,,Scattered Clouds,290,2014-01-13 14:35:00
8:55 AM,34.0,32.5,94,29.64,10.0,West,3.5,-,N/A,,Clear,270,2014-01-13 14:55:00
9:15 AM,37.4,33.8,87,29.64,10.0,West,8.1,-,N/A,,Clear,270,2014-01-13 15:15:00
9:35 AM,38.5,34.2,84,29.65,10.0,West,10.4,-,N/A,,Scattered Clouds,270,2014-01-13 15:35:00
9:55 AM,39.4,34.5,83,29.66,10.0,West,13.8,-,N/A,,Scattered Clouds,270,2014-01-13 15:55:00
10:15 AM,40.1,34.5,80,29.66,10.0,West,13.8,-,N/A,,Scattered Clouds,280,2014-01-13 16:15:00
10:35 AM,40.1,34.9,82,29.67,10.0,West,13.8,19.6,N/A,,Clear,280,2014-01-13 16:35:00
10:55 AM,40.5,35.1,81,29.66,10.0,WNW,12.7,-,N/A,,Clear,290,2014-01-13 16:55:00
11:15 AM,41.0,35.6,81,29.67,10.0,West,13.8,-,N/A,,Clear,280,2014-01-13 17:15:00
11:35 AM,41.2,35.8,81,29.67,10.0,West,15.0,20.7,N/A,,Clear,270,2014-01-13 17:35:00
11:55 AM,41.5,36.0,81,29.67,10.0,West,13.8,-,N/A,,Clear,280,2014-01-13 17:55:00
12:15 PM,41.4,36.0,81,29.68,10.0,West,17.3,-,N/A,,Clear,280,2014-01-13 18:15:00
12:35 PM,41.4,36.1,82,29.67,10.0,West,20.7,26.5,N/A,,Scattered Clouds,270,2014-01-13 18:35:00
12:55 PM,39.2,34.5,83,29.68,10.0,West,20.7,25.3,N/A,,Mostly Cloudy,280,2014-01-13 18:55:00
1:15 PM,37.4,33.6,86,29.69,10.0,WNW,20.7,26.5,N/A,,Overcast,290,2014-01-13 19:15:00
1:35 PM,36.5,33.1,87,29.69,10.0,West,19.6,25.3,N/A,,Overcast,280,2014-01-13 19:35:00
1:55 PM,35.6,32.5,89,29.70,10.0,West,20.7,26.5,N/A,,Overcast,280,2014-01-13 19:55:00
2:15 PM,36.1,32.7,87,29.71,10.0,West,18.4,25.3,N/A,,Overcast,280,2014-01-13 20:15:00
2:35 PM,36.3,32.4,86,29.71,10.0,West,18.4,26.5,N/A,,Mostly Cloudy,270,2014-01-13 20:35:00
2:55 PM,36.5,32.0,84,29.72,10.0,West,13.8,-,N/A,,Scattered Clouds,280,2014-01-13 20:55:00
3:15 PM,37.4,32.4,82,29.73,10.0,West,15.0,-,N/A,,Scattered Clouds,280,2014-01-13 21:15:00
3:35 PM,36.7,31.5,81,29.74,10.0,West,16.1,21.9,N/A,,Scattered Clouds,280,2014-01-13 21:35:00
3:55 PM,35.6,29.3,78,29.75,10.0,WNW,13.8,20.7,N/A,,Clear,290,2014-01-13 21:55:00
4:15 PM,34.9,28.2,77,29.77,10.0,WNW,9.2,18.4,N/A,,Clear,300,2014-01-13 22:15:00
4:35 PM,33.8,28.9,82,29.77,10.0,WNW,6.9,-,N/A,,Clear,290,2014-01-13 22:35:00
4:55 PM,32.9,28.8,85,29.78,10.0,WNW,6.9,-,N/A,,Clear,290,2014-01-13 22:55:00
5:15 PM,32.0,28.9,88,29.78,10.0,WNW,5.8,-,N/A,,Clear,290,2014-01-13 23:15:00
5:35 PM,31.3,28.9,91,29.79,10.0,West,4.6,-,N/A,,Clear,280,2014-01-13 23:35:00
5:55 PM,30.2,28.2,92,29.79,10.0,West,5.8,-,N/A,,Clear,270,2014-01-13 23:55:00
6:15 PM,30.2,28.2,92,29.80,10.0,West,4.6,-,N/A,,Clear,260,2014-01-14 00:15:00
6:35 PM,29.7,27.7,92,29.81,10.0,West,5.8,-,N/A,,Clear,260,2014-01-14 00:35:00
6:55 PM,29.7,27.5,92,29.81,10.0,West,5.8,-,N/A,,Clear,260,2014-01-14 00:55:00
7:15 PM,29.5,27.5,92,29.81,10.0,West,5.8,-,N/A,,Clear,270,2014-01-14 01:15:00
7:35 PM,30.4,28.2,92,29.81,10.0,SW,3.5,-,N/A,,Clear,220,2014-01-14 01:35:00
7:55 PM,30.7,28.2,90,29.81,10.0,WSW,3.5,-,N/A,,Clear,240,2014-01-14 01:55:00
8:15 PM,30.4,27.5,89,29.80,10.0,SW,3.5,-,N/A,,Clear,220,2014-01-14 02:15:00
8:35 PM,30.2,28.0,92,29.80,10.0,SW,3.5,-,N/A,,Clear,220,2014-01-14 02:35:00
8:55 PM,29.3,27.7,94,29.80,10.0,SSW,4.6,-,N/A,,Clear,210,2014-01-14 02:55:00
9:15 PM,28.8,27.5,95,29.80,10.0,SSW,4.6,-,N/A,,Clear,210,2014-01-14 03:15:00
9:35 PM,28.8,27.9,96,29.80,10.0,South,4.6,-,N/A,,Clear,190,2014-01-14 03:35:00
9:55 PM,28.2,28.2,100,29.80,10.0,SSW,4.6,-,N/A,,Clear,210,2014-01-14 03:55:00
10:15 PM,28.2,28.0,99,29.80,10.0,South,3.5,-,N/A,,Clear,190,2014-01-14 04:15:00
10:35 PM,27.5,27.5,100,29.80,10.0,SSW,6.9,-,N/A,,Clear,200,2014-01-14 04:35:00
10:55 PM,27.5,27.5,100,29.80,10.0,South,4.6,-,N/A,,Clear,190,2014-01-14 04:55:00
11:15 PM,26.6,26.6,100,29.79,7.0,SSW,6.9,-,N/A,,Clear,200,2014-01-14 05:15:00
11:35 PM,27.3,27.3,100,29.78,10.0,SSW,8.1,-,N/A,,Clear,200,2014-01-14 05:35:00
11:55 PM,27.5,27.5,100,29.77,10.0,SSW,5.8,-,N/A,,Clear,200,2014-01-14 05:55:00